Date String (YYYY-MM-DD hh:mm:ss) UTC,Instrument flags,Ambient pressure (hPa),Sample flow (lpm),Bypass flow (lpm),Sample temperature (°C),Ambient temperature (°C),ASC tube jacket temperature (°C),LED temperature (°C),Box temperature (°C),Sample RH (%),Span deviation,Mass concentration (μg/m³),Mass concentration (μg/m³),Mass concentration (μg/m³)
DateTimeUTC,F1_M11,P_M11,Q1_M11,Q2_M11,T1_M11,T2_M11,T3_M11,T4_M11,T5_M11,U1_M11,ZSPAN_M11,X0_M11,X2_M11,X1_M11
2022-01-05 04:00:00,,0823.0,4.99,0.00,22.4,22.0,00.0,31.3,24.1,10.5,0000.0,0004.03,0001.45,0000.73
2022-01-05 04:01:00,,0823.1,5.01,0.00,22.4,21.9,00.0,31.3,24.1,10.6,0000.0,0005.08,0001.44,0000.71
2022-01-05 04:02:00,,0823.1,4.99,0.00,22.4,21.9,00.0,31.3,24.1,10.6,0000.0,0005.90,0001.44,0000.69
2022-01-05 04:03:00,,0823.0,5.00,0.00,22.4,21.8,00.0,31.3,24.1,10.8,0000.0,0005.40,0001.47,0000.68
2022-01-05 04:04:00,,0823.1,5.01,0.00,22.3,21.8,00.0,31.3,24.0,10.7,0000.0,0005.23,0001.38,0000.67
2022-01-05 04:05:00,,0823.0,4.99,0.00,22.3,21.7,00.0,31.3,24.0,10.6,0000.0,0005.21,0001.37,0000.65
2022-01-05 04:06:00,,0823.0,5.00,0.00,22.3,21.7,00.0,31.3,24.0,10.9,0000.0,0005.87,0001.39,0000.65
2022-01-05 04:07:00,,0822.9,4.99,0.00,22.3,21.6,00.0,31.3,23.9,10.9,0000.0,0005.89,0001.38,0000.66
2022-01-05 04:08:00,,0823.1,5.01,0.00,22.2,21.6,00.0,31.3,23.9,10.9,0000.0,0005.89,0001.39,0000.65
2022-01-05 04:09:00,,0823.0,5.00,0.00,22.2,21.5,00.0,31.3,23.9,10.5,0000.0,0005.83,0001.37,0000.65
2022-01-05 04:10:00,,0823.0,4.99,0.00,22.2,21.5,00.0,31.3,23.9,10.3,0000.0,0006.03,0001.37,0000.63
2022-01-05 04:11:00,,0823.1,5.00,0.00,22.2,21.5,00.0,31.3,23.9,10.4,0000.0,0006.04,0001.35,0000.62
2022-01-05 04:12:00,,0823.1,5.00,0.00,22.2,21.5,00.0,31.2,23.9,10.4,0000.0,0005.31,0001.33,0000.62
2022-01-05 04:13:00,,0823.0,5.00,0.00,22.2,21.5,00.0,31.2,23.9,10.3,0000.0,0004.14,0001.30,0000.62
2022-01-05 04:14:00,,0823.1,5.01,0.00,22.2,21.5,00.0,31.2,23.9,10.0,0000.0,0003.92,0001.22,0000.60
2022-01-05 04:15:00,,0823.0,5.00,0.00,22.2,21.5,00.0,31.2,23.9,09.9,0000.0,0003.80,0001.18,0000.59
2022-01-05 04:16:00,,0822.9,5.01,0.00,22.2,21.5,00.0,31.2,23.9,09.8,0000.0,0003.68,0001.12,0000.57
2022-01-05 04:17:00,,0822.9,5.00,0.00,22.2,21.5,00.0,31.2,23.8,09.7,0000.0,0003.00,0001.07,0000.53
2022-01-05 04:18:00,,0822.9,4.99,0.00,22.2,21.5,00.0,31.2,23.8,09.7,0000.0,0002.84,0001.01,0000.49
2022-01-05 04:19:00,,0822.9,5.01,0.00,22.1,21.5,00.0,31.2,23.8,09.7,0000.0,0002.68,0000.92,0000.46
2022-01-05 04:20:00,,0823.0,5.00,0.00,22.1,21.5,00.0,31.2,23.8,09.6,0000.0,0002.63,0000.87,0000.44
2022-01-05 04:21:00,,0823.0,4.98,0.00,22.2,21.9,00.0,31.2,23.9,09.4,0000.0,0002.33,0000.79,0000.40
2022-01-05 04:22:00,,0823.0,5.00,0.00,22.3,22.7,00.0,31.2,24.2,09.5,0000.0,0002.19,0000.75,0000.37
2022-01-05 04:23:00,,0823.0,5.00,0.00,22.4,23.2,00.0,31.3,24.4,09.5,0000.0,0002.16,0000.72,0000.34
2022-01-05 04:24:00,,0823.0,5.00,0.00,22.5,23.0,00.0,31.3,24.4,09.4,0000.0,0001.72,0000.65,0000.30
2022-01-05 04:25:00,,0823.0,5.01,0.00,22.5,22.7,00.0,31.3,24.4,09.4,0000.0,0001.55,0000.60,0000.28
2022-01-05 04:26:00,,0823.1,5.00,0.00,22.5,22.5,00.0,31.3,24.3,09.5,0000.0,0001.55,0000.59,0000.26
2022-01-05 04:27:00,,0823.0,5.01,0.00,22.5,22.4,00.0,31.3,24.2,09.6,0000.0,0001.44,0000.55,0000.25
2022-01-05 04:28:00,,0823.0,5.00,0.00,22.5,22.3,00.0,31.4,24.2,09.8,0000.0,0001.44,0000.54,0000.25
2022-01-05 04:29:00,,0823.0,5.00,0.00,22.5,22.1,00.0,31.4,24.2,10.2,0000.0,0002.17,0000.56,0000.26
2022-01-05 04:30:00,,0823.1,5.00,0.00,22.4,22.0,00.0,31.4,24.1,10.3,0000.0,0002.38,0000.58,0000.27
2022-01-05 04:31:00,,0822.9,4.98,0.00,22.4,21.9,00.0,31.4,24.0,11.0,0000.0,0002.30,0000.61,0000.30
2022-01-05 04:32:00,,0823.0,5.01,0.00,22.4,21.8,00.0,31.4,24.0,10.9,0000.0,0002.21,0000.62,0000.36
2022-01-05 04:33:00,,0823.0,5.01,0.00,22.3,21.7,00.0,31.4,23.9,10.1,0000.0,0002.22,0000.63,0000.38
2022-01-05 04:34:00,,0822.9,5.00,0.00,22.3,21.7,00.0,31.4,23.9,10.5,0000.0,0002.30,0000.66,0000.40
2022-01-05 04:35:00,,0822.9,4.99,0.00,22.3,21.6,00.0,31.3,23.8,10.9,0000.0,0002.65,0000.78,0000.44
2022-01-05 04:36:00,,0822.9,5.01,0.00,22.2,21.5,00.0,31.3,23.8,10.7,0000.0,0003.53,0000.83,0000.48
2022-01-05 04:37:00,,0823.0,4.99,0.00,22.2,21.4,00.0,31.3,23.7,10.5,0000.0,0004.65,0000.90,0000.51
2022-01-05 04:38:00,,0823.0,4.99,0.00,22.1,21.3,00.0,31.3,23.7,10.4,0000.0,0004.62,0000.89,0000.52
2022-01-05 04:39:00,,0823.0,5.02,0.00,22.1,21.2,00.0,31.3,23.6,10.4,0000.0,0004.61,0000.90,0000.53
2022-01-05 04:40:00,,0823.0,4.99,0.00,22.0,21.2,00.0,31.2,23.5,10.4,0000.0,0004.04,0000.87,0000.52
2022-01-05 04:41:00,,0823.0,5.00,0.00,22.0,21.1,00.0,31.2,23.4,10.5,0000.0,0003.98,0000.89,0000.52
2022-01-05 04:42:00,,0823.0,5.01,0.00,21.9,21.0,00.0,31.2,23.4,10.4,0000.0,0003.97,0000.87,0000.50
2022-01-05 04:43:00,,0823.0,5.00,0.00,21.9,21.1,00.0,31.1,23.4,10.4,0000.0,0003.98,0000.85,0000.46
2022-01-05 04:44:00,,0823.0,5.01,0.00,21.9,21.6,00.0,31.1,23.6,10.4,0000.0,0004.06,0000.88,0000.46
2022-01-05 04:45:00,,0823.1,4.99,0.00,22.1,22.5,00.0,31.2,23.9,10.4,0000.0,0004.20,0000.87,0000.46
2022-01-05 04:46:00,,0823.1,5.00,0.00,22.2,23.0,00.0,31.2,24.2,10.6,0000.0,0004.00,0000.80,0000.42
2022-01-05 04:47:00,,0823.2,5.00,0.00,22.3,22.7,00.0,31.2,24.1,10.9,0000.0,0003.16,0000.78,0000.41
2022-01-05 04:48:00,,0823.2,5.01,0.00,22.3,22.5,00.0,31.2,24.1,11.3,0000.0,0002.26,0000.80,0000.42
2022-01-05 04:49:00,,0823.1,4.99,0.00,22.2,22.3,00.0,31.2,24.0,11.6,0000.0,0002.60,0000.88,0000.44
2022-01-05 04:50:00,,0823.1,5.00,0.00,22.2,22.1,00.0,31.2,24.0,11.8,0000.0,0002.68,0000.93,0000.48
2022-01-05 04:51:00,,0823.1,5.00,0.00,22.2,22.0,00.0,31.2,23.9,11.9,0000.0,0002.60,0000.98,0000.52
2022-01-05 04:52:00,,0823.0,5.00,0.00,22.2,21.9,00.0,31.2,23.9,11.9,0000.0,0002.72,0001.02,0000.57
2022-01-05 04:53:00,,0823.1,5.01,0.00,22.2,21.7,00.0,31.2,23.8,11.9,0000.0,0002.99,0001.10,0000.60
2022-01-05 04:54:00,,0823.2,4.99,0.00,22.2,21.7,00.0,31.2,23.8,12.0,0000.0,0003.22,0001.19,0000.65
2022-01-05 04:55:00,,0823.3,5.01,0.00,22.1,21.6,00.0,31.2,23.7,11.8,0000.0,0003.35,0001.25,0000.69
2022-01-05 04:56:00,,0823.3,5.01,0.00,22.1,21.5,00.0,31.2,23.7,11.8,0000.0,0004.41,0001.30,0000.73
2022-01-05 04:57:00,,0823.3,4.99,0.00,22.1,21.6,00.0,31.2,23.8,12.0,0000.0,0005.22,0001.35,0000.78
2022-01-05 04:58:00,,0823.4,5.00,0.00,22.2,22.2,00.0,31.2,24.0,12.1,0000.0,0005.15,0001.40,0000.82
2022-01-05 04:59:00,,0823.3,5.00,0.00,22.3,23.0,00.0,31.3,24.3,12.0,0000.0,0005.17,0001.42,0000.84
